Location: Chevoux
(46.3801°N, 4.9476°E)
Time: 22:24:05
(UTC+00:00)

Okean-O - Pass Details

Date: 28 January 2021
Orbit: 638 x 641 km, 98.2° (Epoch: 03 March)

Event Time Altitude Azimuth Distance (km) Brightness Sun altitude
Rises 18:00:09 0° 156° (SSE) 2,934 5.9 -14.1°
Reaches altitude 10° 18:02:22 10° 153° (SSE) 2,030 5.0 -14.5°
Maximum altitude 18:06:44 63° 73° (ENE) 720 2.6 -15.2°
Drops below altitude 10° 18:11:08 10° 353° (N) 2,045 5.2 -15.9°
Sets 18:13:21 0° 350° (N) 2,959 6.1 -16.3°
